Weather observations for the past three days for
Palatka Kay Larkin Field
Imperial (Metric)
Date Time (edt) Wind (mph) Vis. (mi.) Weather Sky Cond. Temperature (ºF) Relative Humidity Wind Chill (°F) Heat Index (°F) Pressure Precipitation (in)
Air Dwpt 6 hour altimeter (in) sea level (mb) 1 hr 3 hr 6 hr
Max. Min.
12 18:35 W 6 0.00 NULL NULL 95 68 41% 100 30.04 0.0
12 18:15 W 7 0.00 NULL NULL 0 0 0% 30.03 0.0
12 17:55 W 6 10.00 Mostly Cloudy BKN095 93.2 68 44% 98 30.03 0.0
12 17:35 W 5 10.00 Partly Cloudy SCT090 95 68 41% 100 30.02 0.0
12 17:15 W 7 10.00 Fair CLR 93.2 69.8 47% 99 30.02 0.0
12 16:55 W 9 G 16 10.00 Fair CLR 95 68 41% 100 30.02 0.0
12 16:35 Vrbl 5 10.00 Fair CLR 95 68 41% 100 30.02 0.0
12 16:15 NW 6 10.00 Partly Cloudy FEW070 SCT080 SCT090 95 66.2 39% 98 30.02 0.0
12 15:55 W 7 10.00 Mostly Cloudy BKN070 BKN080 BKN090 95 68 41% 100 30.03 0.0
12 15:35 Vrbl 5 G 15 10.00 Partly Cloudy SCT065 SCT085 95 68 41% 100 30.03 0.0
12 15:15 Vrbl 5 10.00 Fair CLR 93.2 69.8 47% 99 30.04 0.0
12 14:55 NW 7 G 13 10.00 Fair CLR 93.2 68 44% 98 30.04 0.0
12 14:35 W 7 G 13 10.00 Fair CLR 93.2 71.6 50% 101 30.04 0.0
12 14:15 Vrbl 6 G 14 10.00 Fair CLR 93.2 71.6 50% 101 30.05 0.0
12 13:55 SW 7 10.00 Fair CLR 93.2 71.6 50% 101 30.05 0.0
12 13:35 Calm 10.00 Fair CLR 93.2 71.6 50% 101 30.06 0.0
12 13:15 S 7 10.00 Fair CLR 91.4 73.4 56% 100 30.06 0.0
12 12:55 SW 6 10.00 A Few Clouds FEW050 91.4 73.4 56% 100 30.07 0.0
12 12:35 SW 8 10.00 Fair CLR 89.6 73.4 59% 98 30.07 0.0
12 12:15 NW 5 10.00 Fair CLR 91.4 73.4 56% 100 30.06 0.0
12 11:55 Calm 10.00 Fair CLR 91.4 73.4 56% 100 30.06 0.0
12 11:35 Calm 10.00 Fair CLR 89.6 71.6 55% 96 30.06 0.0
12 11:15 Calm 10.00 Fair CLR 89.6 73.4 59% 98 30.06 0.0
12 10:55 Calm 10.00 Fair CLR 87.8 73.4 62% 96 30.06 0.0
12 10:35 W 3 10.00 Fair CLR 87.8 73.4 62% 96 30.06 0.0
12 09:55 Calm 10.00 Fair CLR 86 71.6 62% 92 30.05 0.0
12 09:35 Calm 10.00 Fair CLR 84.2 73.4 70% 91 30.05 0.0
12 09:15 Vrbl 3 10.00 Fair CLR 82.4 73.4 74% 88 30.04 0.0
12 08:55 Calm 10.00 Fair CLR 80.6 73.4 79% 85 30.03 0.0
12 08:35 W 5 10.00 Fair CLR 78.8 73.4 84% 82 30.03 0.0
12 08:15 W 3 10.00 Fair CLR 77 71.6 83% 78 30.02 0.0
12 07:55 W 3 10.00 Fair CLR 75.2 71.6 89% 75 30.02 0.0
12 07:35 Calm 0.00 NULL NULL 73.4 71.6 94% 30.02 0.0
12 07:15 Calm 10.00 Fair CLR 71.6 71.6 100% 30.01 0.0
12 06:55 Calm 10.00 Fair CLR 71.6 69.8 94% 30 0.0
12 06:35 Calm 10.00 Fair CLR 71.6 69.8 94% 29.99 0.0
12 06:15 Calm 10.00 Fair CLR 71.6 69.8 94% 29.98 0.0
12 05:55 W 3 10.00 Fair CLR 71.6 69.8 94% 29.98 0.0
12 05:15 Calm 10.00 Fair CLR 71.6 71.6 100% 29.97 0.0
12 04:55 Calm 10.00 Fair CLR 71.6 71.6 100% 29.96 0.0
12 04:35 Calm 10.00 Fair CLR 71.6 69.8 94% 29.96 0.0
12 04:15 Calm 10.00 Fair CLR 73.4 71.6 94% 29.96 0.0
12 03:55 Calm 10.00 Fair CLR 71.6 71.6 100% 29.96 0.0
12 03:35 Calm 10.00 Fair CLR 73.4 71.6 94% 29.96 0.0
12 03:15 W 3 10.00 Fair CLR 73.4 71.6 94% 29.96 0.0
12 02:55 Calm 10.00 Fair CLR 73.4 71.6 94% 29.97 0.0
12 02:35 Calm 10.00 Fair CLR 73.4 71.6 94% 29.97 0.0
12 01:55 W 6 10.00 A Few Clouds FEW055 73.4 71.6 94% 29.98 0.0
12 01:35 W 5 10.00 Partly Cloudy SCT055 73.4 71.6 94% 29.99 0.0
12 01:15 W 5 10.00 Mostly Cloudy BKN060 75.2 73.4 94% 74 30 0.0
12 00:55 Calm 10.00 Partly Cloudy SCT060 75.2 73.4 94% 74 30 0.0
12 00:35 Calm 10.00 Fair CLR 77 73.4 89% 78 30 0.0
12 00:15 Calm 10.00 A Few Clouds FEW055 77 73.4 89% 78 29.99 0.0
11 23:55 Calm 10.00 Mostly Cloudy BKN055 77 71.6 83% 78 29.99 0.0
11 23:35 Calm 10.00 Overcast OVC055 77 73.4 89% 78 29.97 0.0
11 23:15 W 5 10.00 Mostly Cloudy BKN055 78.8 73.4 84% 82 29.96 0.0
11 22:55 W 5 10.00 A Few Clouds FEW060 78.8 73.4 84% 82 29.96 0.0
11 22:35 W 3 10.00 Fair CLR 80.6 73.4 79% 85 29.96 0.0
11 22:15 W 5 10.00 Fair CLR 80.6 73.4 79% 85 29.96 0.0
11 21:55 W 5 10.00 Fair CLR 80.6 75.2 84% 86 29.96 0.0
11 21:35 W 3 10.00 Fair CLR 80.6 77 89% 87 29.96 0.0
11 21:15 Calm 10.00 Fair CLR 80.6 77 89% 87 29.96 0.0
11 20:55 Calm 10.00 Fair CLR 82.4 77 84% 91 29.96 0.0
11 20:35 Calm 10.00 Fair CLR 82.4 77 84% 91 29.95 0.0
11 20:15 Calm 10.00 Fair CLR 84.2 77 79% 94 29.95 0.0
11 19:55 Calm 10.00 Fair CLR 86 77 75% 97 29.95 0.0
11 19:35 Calm 10.00 Fair CLR 86 75.2 70% 95 29.94 0.0
11 19:15 Calm 10.00 Fair CLR 87.8 75.2 66% 98 29.93 0.0
11 18:55 W 6 10.00 Fair CLR 87.8 73.4 62% 96 29.92 0.0
11 18:35 W 5 10.00 Fair CLR 89.6 73.4 59% 98 29.92 0.0
11 18:15 W 5 10.00 Fair CLR 87.8 75.2 66% 98 29.92 0.0
11 17:55 W 7 10.00 Fair CLR 89.6 71.6 55% 96 29.93 0.0
11 17:35 W 6 G 12 10.00 Fair CLR 89.6 71.6 55% 96 29.93 0.0
11 17:15 W 8 10.00 Fair CLR 89.6 71.6 55% 96 29.94 0.0
11 16:55 NW 8 10.00 Fair CLR 91.4 71.6 52% 99 29.94 0.0
11 16:35 W 6 10.00 Fair CLR 89.6 73.4 59% 98 29.94 0.0
11 16:15 W 8 10.00 Fair CLR 89.6 71.6 55% 96 29.94 0.0
11 15:55 W 8 10.00 Fair CLR 91.4 71.6 52% 99 29.94 0.0
11 15:35 W 8 G 16 10.00 Fair CLR 91.4 71.6 52% 99 29.95 0.0
11 15:15 NW 13 G 18 10.00 Fair CLR 91.4 71.6 52% 99 29.94 0.0
11 14:55 NW 14 10.00 Fair CLR 91.4 71.6 52% 99 29.95 0.0
11 14:35 W 13 10.00 Fair CLR 91.4 73.4 56% 100 29.96 0.0
11 14:15 W 10 10.00 NULL NULL 91.4 73.4 56% 100 29.96 0.0
11 13:55 W 9 10.00 NULL NULL 89.6 73.4 59% 98 29.97 0.0
11 13:15 Vrbl 7 G 16 10.00 Fair CLR 89.6 75.2 63% 100 29.96 0.0
11 12:55 W 8 10.00 A Few Clouds FEW040 89.6 75.2 63% 100 29.97 0.0
11 12:35 SW 7 10.00 A Few Clouds FEW038 87.8 77 70% 100 29.97 0.0
11 12:15 Vrbl 6 10.00 Fair CLR 87.8 75.2 66% 98 29.98 0.0
11 11:55 Calm 10.00 Fair CLR 86 75.2 70% 95 29.98 0.0
11 11:35 SW 3 10.00 Fair CLR 86 77 75% 97 29.98 0.0
11 11:15 W 6 10.00 Fair CLR 84.2 77 79% 94 29.98 0.0
11 10:55 W 6 10.00 Fair CLR 84.2 77 79% 94 29.99 0.0
11 10:35 Calm 10.00 Fair CLR 82.4 77 84% 91 29.99 0.0
11 10:15 NW 7 10.00 Fair CLR 82.4 77 84% 91 29.99 0.0
11 09:55 Vrbl 5 10.00 Fair CLR 80.6 77 89% 87 29.98 0.0
11 09:35 NW 5 10.00 Fair CLR 80.6 77 89% 87 29.99 0.0
11 09:15 Vrbl 5 10.00 A Few Clouds FEW049 80.6 78.8 94% 88 29.98 0.0
11 08:55 Calm 10.00 A Few Clouds FEW049 78.8 77 94% 83 29.98 0.0
11 08:35 W 5 9.00 Fair CLR 77 77 100% 78 29.98 0.0
11 08:15 W 5 10.00 Fair CLR 77 77 100% 78 29.98 0.0
11 07:55 W 3 9.00 Fair CLR 75.2 75.2 100% 73 29.97 0.0
11 07:35 W 3 9.00 Fair CLR 75.2 75.2 100% 73 29.97 0.0
11 07:15 Calm 9.00 Fair CLR 75.2 75.2 100% 73 29.96 0.0
11 06:55 Calm 8.00 Fair CLR 73.4 73.4 100% 29.95 0.0
11 06:35 Calm 8.00 A Few Clouds FEW048 73.4 73.4 100% 29.94 0.0
11 06:15 Calm 8.00 Mostly Cloudy BKN048 73.4 73.4 100% 29.94 0.0
11 05:55 W 5 7.00 Partly Cloudy SCT049 73.4 73.4 100% 29.94 0.0
11 05:35 W 5 6.00 Fog/Mist FEW036 73.4 73.4 100% 29.94 0.0
11 05:15 Calm 8.00 Partly Cloudy SCT036 SCT045 73.4 73.4 100% 29.94 0.0
11 04:55 Calm 8.00 Mostly Cloudy SCT026 BKN032 BKN043 73.4 73.4 100% 29.94 0.0
11 04:35 Calm 9.00 Mostly Cloudy BKN027 BKN033 BKN040 73.4 73.4 100% 29.94 0.0
11 04:15 Calm 8.00 Mostly Cloudy SCT035 SCT049 BKN055 73.4 73.4 100% 29.94 0.0
11 03:55 Calm 9.00 Overcast FEW037 OVC055 75.2 75.2 100% 73 29.94 0.0
11 03:35 Calm 9.00 Overcast BKN023 BKN041 OVC055 75.2 75.2 100% 73 29.94 0.0
11 03:15 Calm 8.00 Overcast SCT022 BKN027 OVC041 75.2 75.2 100% 73 29.94 0.0
11 02:35 Calm 6.00 Overcast FEW022 SCT028 OVC041 73.4 73.4 100% 29.94 0.0
11 02:15 Calm 8.00 Overcast SCT022 BKN027 OVC050 73.4 73.4 100% 29.95 0.0
11 01:35 Calm 8.00 Mostly Cloudy BKN025 BKN031 BKN043 73.4 73.4 100% 29.95 0.0
11 01:15 Calm 8.00 Mostly Cloudy SCT024 BKN030 73.4 73.4 100% 29.95 0.0
11 00:55 Calm 9.00 Mostly Cloudy BKN024 BKN029 73.4 73.4 100% 29.96 0.0
11 00:35 Calm 9.00 Mostly Cloudy BKN025 73.4 73.4 100% 29.96 0.0
11 00:15 Calm 8.00 Mostly Cloudy BKN025 73.4 73.4 100% 29.96 0.0
10 23:55 Calm 7.00 Overcast OVC025 73.4 73.4 100% 29.96 0.0
10 23:35 Calm 9.00 Overcast OVC024 73.4 73.4 100% 29.96 0.0
10 23:15 Calm 9.00 Overcast BKN022 OVC028 73.4 73.4 100% 29.97 0.0
10 22:55 Calm 9.00 Overcast OVC028 73.4 73.4 100% 29.97 0.0
10 22:35 Calm 9.00 Mostly Cloudy FEW021 BKN028 73.4 73.4 100% 29.97 0.0
10 22:15 Calm 9.00 Mostly Cloudy BKN031 73.4 73.4 100% 29.97 0.0
10 21:55 Calm 9.00 Mostly Cloudy BKN032 BKN048 BKN120 73.4 73.4 100% 29.97 0.0
10 21:35 Calm 9.00 Overcast BKN032 BKN043 OVC120 73.4 73.4 100% 29.97 0.0
10 21:15 Calm 10.00 Mostly Cloudy BKN032 BKN040 73.4 73.4 100% 29.97 0.0
10 20:55 Calm 9.00 Unknown Precip FEW031 SCT037 SCT055 73.4 73.4 100% 29.97 0.0
10 20:35 Calm 7.00 Light Rain FEW046 FEW055 SCT070 73.4 73.4 100% 29.98 0.0
10 20:15 Calm 5.00 Light Rain Fog/Mist SCT042 SCT050 BKN060 71.6 71.6 100% 29.98 0.0
10 19:55 Calm 3.00 Light Rain Fog/Mist FEW032 BKN044 OVC070 71.6 71.6 100% 29.99 0.0
10 19:35 W 3 6.00 Light Rain Fog/Mist SCT048 SCT060 BKN070 71.6 71.6 100% 29.99 0.0
10 19:15 Calm 8.00 Mostly Cloudy FEW046 SCT070 BKN100 73.4 71.6 94% 29.97 0.0
10 18:55 Calm 8.00 Mostly Cloudy SCT037 BKN050 BKN085 71.6 69.8 94% 29.97 0.0
10 18:35 N 7 2.50 Thunderstorm in Vicinity Rain Fog/Mist FEW007 BKN031 OVC049 71.6 68 88% 29.98 0.0
10 18:15 NW 20 G 35 1.00 Thunderstorm Light Rain Fog/Mist SCT008 BKN026 OVC055 75.2 73.4 94% 74 30.01 0.0
10 17:55 Vrbl 5 9.00 Thunderstorm in Vicinity FEW055 FEW065 84.2 80.6 89% 98 29.97 0.0
10 17:35 S 6 9.00 Fair CLR 84.2 78.8 84% 96 29.96 0.0
10 17:15 S 3 9.00 A Few Clouds FEW050 FEW055 84.2 78.8 84% 96 29.97 0.0
10 16:55 Calm 9.00 Fair CLR 82.4 78.8 89% 92 29.97 0.0
10 16:35 S 5 9.00 A Few Clouds FEW036 FEW043 82.4 78.8 89% 92 29.96 0.0
10 16:15 S 5 9.00 Partly Cloudy FEW034 FEW041 SCT050 82.4 78.8 89% 92 29.97 0.0
10 15:55 S 3 9.00 Partly Cloudy FEW038 FEW044 SCT050 82.4 77 84% 91 29.97 0.0
10 15:35 S 5 10.00 Partly Cloudy FEW039 SCT049 SCT070 82.4 75.2 79% 89 29.97 0.0
10 15:15 SW 6 10.00 Mostly Cloudy SCT036 BKN045 BKN050 84.2 75.2 74% 92 29.98 0.0
10 14:55 SW 10 G 16 10.00 Partly Cloudy SCT037 SCT047 SCT055 86 77 75% 97 29.98 0.0
10 14:35 Calm 9.00 Partly Cloudy FEW040 SCT047 87.8 78.8 75% 102 29.97 0.0
10 14:15 N 5 10.00 Partly Cloudy SCT045 SCT055 87.8 78.8 75% 102 29.98 0.0
10 13:55 NW 9 10.00 Fair CLR 91.4 77 63% 105 29.99 0.0
10 13:35 W 10 10.00 Fair CLR 91.4 77 63% 105 29.98 0.0
10 13:15 W 12 G 21 10.00 A Few Clouds FEW041 FEW047 FEW055 91.4 77 63% 105 29.98 0.0
10 12:55 Vrbl 7 G 18 9.00 A Few Clouds FEW041 FEW049 91.4 78.8 67% 108 29.98 0.0
10 12:35 W 9 G 16 9.00 A Few Clouds FEW041 91.4 77 63% 105 29.98 0.0
10 12:15 W 14 9.00 Fair CLR 91.4 77 63% 105 29.99 0.0
10 11:55 W 12 G 21 9.00 Partly Cloudy FEW032 FEW039 SCT046 89.6 77 67% 103 29.99 0.0
10 11:35 NW 10 G 17 9.00 A Few Clouds FEW030 FEW035 89.6 78.8 71% 105 30 0.0
10 11:15 W 9 G 17 8.00 A Few Clouds FEW030 FEW035 FEW055 89.6 78.8 71% 105 30 0.0
10 10:55 NW 9 9.00 Fair CLR 87.8 78.8 75% 102 29.99 0.0
10 10:35 W 12 8.00 A Few Clouds FEW027 87.8 80.6 79% 105 30 0.0
10 10:15 W 8 G 16 8.00 Partly Cloudy SCT023 SCT027 87.8 78.8 75% 102 30 0.0
10 09:55 Vrbl 6 G 13 9.00 Partly Cloudy SCT020 SCT025 86 80.6 84% 102 30.01 0.0
10 09:35 NW 9 9.00 A Few Clouds FEW017 86 80.6 84% 102 30.01 0.0
10 09:15 Calm 9.00 Fair CLR 84.2 80.6 89% 98 30.01 0.0
10 08:55 Calm 8.00 Fair CLR 82.4 80.6 94% 94 30.02 0.0
10 08:35 W 5 9.00 Fair CLR 80.6 80.6 100% 89 30.01 0.0
10 08:15 Calm 8.00 Partly Cloudy SCT025 SCT032 SCT040 78.8 78.8 100% 83 30.01 0.0
10 07:55 W 3 8.00 Mostly Cloudy SCT026 SCT034 BKN040 78.8 78.8 100% 83 30 0.0
10 07:35 W 3 6.00 Fog/Mist CLR 77 77 100% 78 30 0.0
10 07:15 W 3 7.00 A Few Clouds FEW110 77 77 100% 78 30 0.0
10 06:55 Calm 0.00 NULL NULL 77 77 100% 78 30 0.0
10 06:35 Calm 8.00 Mostly Cloudy SCT025 BKN033 BKN047 77 77 100% 78 29.99 0.0
10 06:15 Calm 8.00 Overcast BKN024 OVC032 77 77 100% 78 29.99 0.0
10 05:55 Calm 8.00 Mostly Cloudy BKN024 BKN030 BKN037 77 77 100% 78 29.99 0.0
10 05:35 Calm 8.00 Partly Cloudy FEW030 SCT037 SCT043 77 77 100% 78 29.98 0.0
10 05:15 Calm 7.00 Partly Cloudy FEW028 SCT034 SCT044 77 77 100% 78 29.98 0.0
10 04:55 Calm 8.00 Partly Cloudy FEW024 SCT028 SCT033 77 77 100% 78 29.97 0.0
10 04:35 Calm 8.00 Partly Cloudy FEW024 SCT028 SCT033 77 77 100% 78 29.97 0.0
10 04:15 Calm 8.00 Fair CLR 77 77 100% 78 29.97 0.0
10 03:55 Calm 9.00 Fair CLR 77 77 100% 78 29.97 0.0
10 03:35 Calm 7.00 Fair CLR 77 77 100% 78 29.97 0.0
10 03:15 Calm 8.00 Fair CLR 77 77 100% 78 29.97 0.0
10 02:55 SW 6 9.00 Fair CLR 78.8 78.8 100% 83 29.97 0.0
10 02:35 Calm 9.00 Fair CLR 78.8 78.8 100% 83 29.97 0.0
10 02:15 SW 6 8.00 Partly Cloudy FEW040 SCT046 77 77 100% 78 29.98 0.0
10 01:55 W 3 8.00 Partly Cloudy FEW027 FEW033 SCT046 77 77 100% 78 29.98 0.0
10 01:35 Calm 9.00 A Few Clouds FEW040 77 77 100% 78 30 0.0
10 01:15 Calm 9.00 Fair CLR 77 77 100% 78 30 0.0
10 00:55 Calm 9.00 Partly Cloudy FEW028 FEW035 SCT042 77 77 100% 78 30 0.0
10 00:35 SW 5 9.00 A Few Clouds FEW030 77 77 100% 78 30.01 0.0
10 00:15 SW 5 10.00 Fair CLR 77 77 100% 78 30.01 0.0
09 23:55 Calm 9.00 Partly Cloudy FEW025 SCT032 SCT120 77 77 100% 78 30.02 0.0
09 23:35 Calm 9.00 Overcast BKN023 BKN028 OVC120 77 77 100% 78 30.03 0.0
09 23:15 Calm 10.00 Mostly Cloudy FEW031 SCT037 BKN120 77 77 100% 78 30.02 0.0
09 22:55 Calm 10.00 Mostly Cloudy SCT030 BKN036 BKN120 77 77 100% 78 30.01 0.0
09 22:35 Calm 10.00 Partly Cloudy FEW032 SCT039 78.8 77 94% 83 30.01 0.0
09 22:15 Calm 10.00 A Few Clouds FEW034 FEW045 78.8 77 94% 83 30.01 0.0
09 21:55 Calm 10.00 A Few Clouds FEW045 FEW120 78.8 77 94% 83 30.01 0.0
09 21:35 Calm 0.00 NULL NULL 78.8 77 94% 83 30.01 0.0
09 21:15 Calm 10.00 Mostly Cloudy BKN120 78.8 77 94% 83 30.01 0.0
09 20:55 SW 5 10.00 Overcast OVC120 78.8 77 94% 83 30 0.0
09 20:35 SW 3 10.00 Overcast OVC110 78.8 78.8 100% 83 30 0.0
09 20:15 Calm 10.00 Overcast OVC110 80.6 78.8 94% 88 29.99 0.0
09 19:55 Calm 9.00 Mostly Cloudy BKN110 80.6 78.8 94% 88 29.99 0.0
09 19:35 SW 5 10.00 A Few Clouds FEW110 80.6 77 89% 87 29.99 0.0
09 19:15 Calm 10.00 Fair CLR 80.6 77 89% 87 30 0.0
Date Time (edt) Wind (mph) Vis. (mi.) Weather Sky Cond. Air Dwpt Max. Min. Relative Humidity Wind Chill (°F) Heat Index (°F) altimeter (in) sea level (mb) 1 hr 3 hr 6 hr
6 hour
Temperature (ºF) Pressure Precipitation (in)